Location: Newton_East
(35.6670°N, 81.2000°W)
Time: 06:41:31
(UTC-04:00)

ISS - Visible Passes

Search period start: 31 October 2014 00:00
Search period end: 09 November 2014 23:00
Orbit: 412 x 417 km, 51.6° (Epoch: 30 October)

Date Brightness Start Highest point End Pass type
(mag) Time Alt. Az. Time Alt. Az. Time Alt. Az.
06 Nov -0.4 06:20:30 10° S 06:23:06 22° SE 06:25:43 10° ENE visible
07 Nov 0.1 05:32:47 10° SE 05:33:52 11° SE 05:34:57 10° ESE visible
08 Nov -3.0 06:17:25 10° SW 06:20:42 72° SE 06:24:00 10° NE visible
09 Nov -1.7 05:28:15 10° SSW 05:31:17 34° SE 05:34:19 10° ENE visible
